Location: ???????
(54.9567°N, 38.2836°E)
Time: 12:24:02
(UTC+00:00)

Cosmos 2360 Rocket - Pass Details

Date: 14 April 2024
Orbit: 832 x 846 km, 71.0° (Epoch: 23 May)

Event Time Altitude Azimuth Distance (km) Brightness Sun altitude
Exits shadow 00:09:56 24° 250° (WSW) 1,655 3.2 -17.1°
Maximum altitude 00:13:03 49° 313° (NW) 1,078 2.7 -16.8°
Drops below altitude 10° 00:18:31 10° 29° (NNE) 2,467 5.8 -16.3°
Sets 00:21:05 0° 35° (NE) 3,407 7.1 -16.0°
